User: anonymous   Login
Location: Newark
(12.4436°N, 0.6167°W)
Time: 02:09:39
(UTC+00:00)
Language:

Vanguard 2 - Orbit

View from above orbital plane
View from above orbital plane
View from above satellite
View from above satellite

Ground track
Ground track

The orbit data is extracted from the following two-line orbital elements,

1    11U 59001A   19342.53959834  .00000251  00000-0  11338-3 0  9999
2    11  32.8797  55.9303 1467841 248.1224  95.7190 11.85635278593935
Epoch (UTC): 08 December 2019 12:57:01
Eccentricity: 0.1467841
inclination: 32.8797°
perigee height: 553 km
apogee height: 2938 km
right ascension of ascending node: 55.9303°
argument of perigee: 248.1224°
revolutions per day: 11.85635278
mean anomaly at epoch: 95.7190°
orbit number at epoch: 59393

The dashed part of the orbit path shows where the satellite is in the earth's shadow,  

DLR